#timestamp,LO_Frequency,Hit,StdDev 
1510653615.3,286046999.4,N
1510653635.1,286046998.4,N
1510653655.9,286046998.5,N
1510653675.7,286047000.9,N
1510653695.5,286046999.4,N
1510653715.4,286046997.2,N
1510653735.2,286046994.9,Y
1510653755.0,286047001.1,P
1510653755.9,286047001.1,N
1510653775.8,286046998.2,N
1510653795.6,286046996.9,N
1510653815.5,286046998.8,N
1510653835.3,286047000.8,N
1510653855.1,286047001.2,N
1510653875.9,286047000.3,N
1510653895.7,286047002.7,N
1510653915.5,286046999.8,N
1510653935.4,286047000.9,N
1510653955.2,286047002.8,N
1510653975.1,286047000.0,N
1510653976.0,286047000.0,N
1510653995.8,286047002.5,N
1510654015.6,286047001.4,N
1510654035.5,286047003.8,N
1510654055.3,286047003.1,N
1510654075.1,286047003.3,N
1510654095.9,286047001.5,N
1510654115.7,286047003.9,N
1510654135.5,286047001.8,N
1510654155.4,286047001.5,N
1510654175.2,286047000.0,N
1510654195.1,286047000.0,N
1510654196.0,286047000.0,N
1510654215.8,286047001.1,N
1510654235.6,286047000.1,N
1510654255.5,286047000.8,N
1510654275.3,286047002.8,N
1510654295.1,286047001.2,N
1510654315.9,286046998.6,N
1510654335.7,286047001.1,N
1510654355.6,286046999.4,N
1510654375.4,286046999.0,N
1510654395.2,286046999.0,N
1510654415.1,286047001.2,N
1510654416.0,286047001.2,N
1510654435.8,286047001.1,N
1510654455.6,286046998.6,N
1510654475.5,286046998.8,N
1510654495.3,286047000.8,N
1510654545.2,286047000.5,E
1510654555.1,286047001.1,N
1510654575.8,286046998.6,P
1510654595.7,286047000.2,N
1510654615.5,286047000.2,N
1510654635.4,286047002.4,N
1510654655.2,286047002.0,N
1510654675.0,286046998.3,N
1510654675.9,286046998.3,N
1510654695.8,286046998.9,N
1510654715.6,286046996.6,N
1510654735.4,286046999.4,N
1510654755.3,286046998.3,N
1510654775.1,286046998.7,N
1510654795.9,286046999.6,N
1510654815.7,286046997.0,N
1510654835.5,286046996.5,N
1510654855.4,286046998.4,N
1510654875.2,286046996.7,N
1510654895.0,286046999.5,N
1510654895.9,286046999.5,N
1510654915.8,286046998.4,N
1510654935.6,286047001.0,N
1510654955.4,286047001.2,N
1510654975.3,286046998.3,N
1510654995.1,286046997.0,N
1510655015.9,286046998.4,N
1510655035.7,286046998.3,N
1510655055.5,286046996.8,N
1510655075.4,286046996.6,N
1510655095.2,286046996.7,N
1510655115.1,286046996.9,N
1510655116.0,286046996.9,N
1510655135.8,286046997.8,N
1510655155.6,286046998.8,N
1510655175.5,286047000.9,N
1510655195.3,286047000.2,N
1510655215.1,286047000.4,N
1510655235.9,286047000.3,N
1510655255.7,286047000.7,N
1510655275.6,286046999.8,N
1510655295.4,286047002.8,N
1510655315.2,286046999.8,N
1510655335.1,286047001.7,N
1510655336.0,286047001.7,N
1510655355.8,286047004.4,N
1510655375.7,286047003.3,N
1510655395.5,286047004.4,N
1510655415.3,286047001.8,N
1510655435.2,286047002.2,N
1510655455.0,286047002.3,N
1510655455.9,286047002.3,N
1510655475.7,286046998.1,N
1510655495.6,286046998.8,N
1510655515.4,286047000.8,N
1510655535.3,286047000.5,N
1510655555.1,286046998.3,N
1510655556.0,286046998.3,N
1510655575.8,286047001.1,N
1510655595.7,286046998.5,N
1510655615.5,286046998.7,N
1510655635.3,286047000.8,N
1510655655.2,286046998.6,N
1510655675.0,286046998.7,N
1510655675.9,286046998.7,N
1510655695.8,286047000.6,N
1510655715.6,286047000.9,N
1510655735.4,286047000.8,N
1510655755.3,286046999.0,N
1510655775.1,286047000.6,N
1510655795.8,286047000.6,N
1510655815.7,286047000.1,N
1510655835.5,286047002.3,N
1510655855.4,286047002.3,N
1510655875.2,286047000.1,N
1510655895.0,286047002.4,N
1510655895.9,286047002.4,N
1510655915.8,286046999.9,N
1510655935.6,286047002.4,N
1510655955.5,286047000.2,N
1510655975.3,286047000.3,N
1510655995.1,286046998.1,N
1510656015.9,286046998.8,N
1510656035.7,286046998.9,N
1510656055.5,286046998.2,N
1510656075.4,286047001.2,N
1510656095.2,286046998.8,N
1510656115.1,286047000.5,N
1510656116.0,286047000.5,N
1510656135.8,286046999.9,N
1510656155.6,286047000.5,N
1510656175.5,286046998.4,N
1510656195.3,286046999.2,N
1510656215.1,286046998.3,N
1510656235.9,286046998.7,N
1510656255.7,286046998.9,N
1510656275.6,286046998.6,N
1510656295.4,286046999.2,N
1510656315.2,286046998.4,N
1510656335.1,286046997.2,N
1510656336.0,286046997.2,N
1510656355.8,286046997.3,N
1510656375.7,286046996.7,N
1510656395.5,286046996.6,N
1510656415.3,286046999.1,N
1510656435.2,286046998.2,N
1510656455.9,286046998.9,N
1510656475.7,286046999.4,N
1510656495.6,286046996.9,N
1510656515.4,286046997.7,N
1510656535.3,286046997.8,N
1510656555.1,286046996.3,Y
1510656556.0,286046996.3,P
1510656575.8,286046997.5,N
1510656595.7,286046996.5,P
1510656615.5,286046996.6,Y
1510656635.3,286047000.5,P
1510656655.2,286047002.8,N
1510656675.0,286047002.6,N
1510656675.9,286047002.6,N
1510656695.8,286047001.5,N
1510656715.6,286046999.7,N
1510656735.4,286047000.1,N
1510656755.3,286047001.7,N
1510656775.1,286047003.2,N
1510656795.9,286047004.6,N
1510656815.7,286047004.6,N
1510656835.5,286047005.7,N
1510656855.4,286047005.6,N
1510656875.2,286047005.2,N
1510656895.0,286047007.0,N
1510656895.9,286047007.0,N
1510656915.8,286047006.7,N
1510656935.6,286047007.4,N
1510656955.5,286047006.1,N
1510656975.3,286047005.0,N
1510656995.1,286047007.5,N
1510657015.9,286047007.1,N
1510657035.7,286047005.5,N
1510657055.5,286047004.5,N
1510657075.4,286047003.3,N
1510657095.2,286047003.3,N
1510657115.1,286047004.1,N
1510657116.0,286047004.1,N
1510657135.8,286047006.0,N
1510657155.6,286047003.4,N
1510657175.5,286047003.4,N
1510657195.3,286047005.2,N
